Probability
0 0 0 0 0 0 0 0 0 0 0 0 0 0 0 0 0 0 0 0 0 0 0 0 0 0 0 0 0 0 0 0 0 0 0 0 0 0 0 0 0 0 0
0 0 0 0 0 0 0 0 0 0 0 0 0 0 0 0 0 0 0 0 0 0 0 0 0 0 0 0 0 0 0 0 0 0 0 0 0 0 0 0 0 0 0
0 0 0 0 0 0 0 0 0 0 0 0 0 0 0 0 0 0 0 0 0 0 0 0 0 0 0 0 0 0 0 0 0 0 0 0 0 0 0 0 0 0 0
0 0 0 0 0 0 0 0 0 0 0 0 0 0 0 0 0 0 0 0 0 0 0 0 0 0 0 0 0 0 0 0 0 0 0 0 0 0 0 0 0 0 0
0 0 0 0 0 0 0 0 0 0 0 0 0 0 0 0 0 0 0 0 0 0 0 0 0 0 0 0 0 0 0 0 0 0 0 0 0 0 0 0 0 0 0
0 0 0 0 0 0 0 0 0 0 0 0 0 0 0 0 0 0 0 0 0 0 0 0 0 0 0 0 0 0 0 0 0 0 0 0 0 0 0 0 0 0 0
0 0 0 0 0 0 0 0 0 0 0 0 0 0 0 0 0 0 0 0 0 0 0 0 0 0 0 0 0 0 0 0 0 0 0 0 0 0 0 0 0 0 0
0 0 0 0 0 0 0 0 0 0 0 0 0 0 0 0 0 0 0 0 0 0 0 0 0 0 0 0 0 0 0 0 0 0 0 0 0 0 0 0 0 0 0
0 0 0 0 0 0 0 0 0 0 0 0 0 0 0 0 0 0 0 0 0 0 0 0 0 0 0 0 0 0 0 0 0 0 0 0 0 0 0 0 0 0 0
0 0 0 0 0 0 0 0 0 0 0 0 0 0 0 0 0 0 0 0 0 0 0 0 0 0 0 0 0 0 0 0 0 0 0 0 0 0 0 0 0 0 0
0 0 0 0 0 0 0 0 0 0 0 0 0 0 0 0 0 0 0 0 0 0 0 0 0 0 0 0 0 0 0 0 0 0 0 0 0 0 0 0 0 0 0
0 0 0 0 0 0 0 0 0 0 0 0 0 0 0 0 0 0 0 0 0 0 0 0 0 0 0 0 0 0 0 0 0 0 0 0 0 0 0 0 0 0 0
0 0 0 0 0 0 0 0 0 0 0 0 0 0 0 0 0 0 0 0 0 0 0 0 0 0 0 0 0 0 0 0 0 0 0 0 0 0 0 0 0 0 0
0 0 0 0 0 0 0 0 0 0 0 0 0 0 0 0 0 0 0 0 0 0 0 0 0 0 0 0 0 0 0 0 0 0 0 0 0 0 0 0 0 0 0
0 0 0 0 0 0 0 0 0 0 0 0 0 0 0 0 0 0 0 0 0 0 0 0 0 0 0 0 0 0 0 0 0 0 0 0 0 0 0 0 0 0 0
0 0 0 0 0 0 0 0 0 0 0 0 0 0 0 0 0 0 0 0 0 0 0 0 0 0 0 0 0 0 0 0 0 0 0 0 0 0 0 0 0 0 0
0 0 0 0 0 0 0 0 0 0 0 0 0 0 0 0 0 0 0 0 0 0 0 0 0 0 0 0 0 0 0 0 0 0 0 0 0 0 0 0 0 0 0
0 0 0 0 0 0 0 0 0 0 0 0 0 0 0 0 0 0 0 0 0 0 0 0 0 0 0 0 0 0 0 0 0 0 0 0 0 0 0 0 0 0 0
0 0 0 0 0 0 0 0 0 0 0 0 0 0 0 0 0 0 0 0 0 0 0 0 0 0 0 0 0 0 0 0 0 0 0 0 0 0 0 0 0 0 0
0 0 0 0 0 0 0 0 0 0 0 0 0 0 0 0 0 0 0 0 0 0 0 0 0 0 0 0 0 0 0 0 0 0 0 0 0 0 0 0 0 0 0
0 0 0 0 0 0 0 0 0 0 0 0 0 0 0 0 0 0 0 0 0 0 0 0 0 0 0 0 0 0 0 0 0 0 0 0 0 0 0 0 0 0 0
0 0 0 0 0 0 0 0 0 0 0 0 0 0 0 0 0 0 0 0 0 0 0 0 0 0 0 0 0 0 0 0 0 0 0 0 0 0 0 0 0 0 0
0 0 0 0 0 0 0 0 0 0 0 0 0 0 0 0 0 0 0 0 0 0 0 0 0 0 0 0 0 0 0 0 0 0 0 0 0 0 0 0 0 0 0
0 0 0 0 0 0 0 0 0 0 0 0 0 0 0 0 0 0 0 0 0 0 0 0 0 0 0 0 0 0 0 0 0 0 0 0 0 0 0 0 0 0 0
0 0 0 0 0 0 0 0 0 0 0 0 0 0 0 0 0 0 0 0 0 0 0 0 0 0 0 0 0 0 0 0 0 0 0 0 0 0 0 0 0 0 0
0 0 0 0 0 0 0 0 0 0 0 0 0 0 0 0 0 0 0 0 0 0 0 0 0 0 0 0 0 0 0 0 0 0 0 0 0 0 0 0 0 0 0
Height
5644 5645 5646 5647 5648 5649 5650 5651 5652 5653 5653 5654 5654 5654 5655 5655 5655 5655 5655 5655 5655 5655 5655 5655 5655 5654 5655 5656 5656 5657 5657 5658 5660 5661 5662 5663 5663 5664 5665 5665 5666 5666 5666
5634 5635 5636 5637 5638 5640 5640 5641 5642 5643 5644 5644 5645 5645 5645 5646 5646 5646 5646 5646 5646 5646 5645 5645 5645 5645 5645 5645 5646 5646 5647 5647 5648 5649 5650 5651 5651 5652 5652 5653 5653 5652 5652
5624 5625 5626 5627 5628 5630 5631 5631 5632 5633 5634 5634 5635 5635 5636 5636 5636 5636 5636 5636 5636 5636 5635 5635 5635 5635 5635 5635 5635 5636 5636 5637 5637 5638 5638 5639 5639 5639 5639 5639 5639 5638 5638
5613 5615 5616 5617 5618 5619 5620 5621 5622 5623 5624 5625 5625 5626 5626 5626 5626 5626 5627 5626 5626 5626 5626 5625 5625 5625 5625 5625 5625 5625 5625 5625 5626 5626 5627 5627 5627 5627 5626 5626 5625 5624 5623
5602 5604 5605 5606 5608 5609 5610 5611 5612 5613 5614 5615 5615 5616 5616 5617 5617 5617 5617 5617 5617 5616 5616 5616 5616 5615 5615 5615 5615 5615 5614 5614 5614 5615 5615 5615 5615 5614 5613 5612 5612 5611 5609
5591 5593 5594 5596 5597 5598 5599 5601 5602 5603 5604 5605 5605 5606 5606 5606 5607 5607 5607 5607 5607 5607 5606 5606 5606 5605 5605 5605 5604 5604 5604 5603 5603 5603 5603 5603 5602 5601 5600 5599 5598 5597 5597
5581 5582 5584 5585 5586 5587 5588 5590 5591 5592 5593 5594 5595 5595 5596 5596 5596 5596 5596 5597 5597 5597 5596 5596 5596 5595 5594 5594 5593 5593 5592 5592 5592 5591 5590 5590 5589 5589 5588 5586 5585 5583 5582
5570 5571 5573 5574 5575 5576 5577 5579 5580 5581 5582 5583 5584 5584 5585 5586 5586 5586 5586 5586 5586 5587 5586 5586 5585 5585 5584 5584 5583 5582 5581 5580 5579 5579 5578 5577 5576 5575 5574 5573 5571 5570 5568
5558 5560 5561 5563 5564 5565 5567 5568 5569 5570 5571 5572 5573 5573 5574 5575 5575 5575 5575 5575 5576 5576 5576 5575 5574 5574 5573 5572 5572 5571 5570 5569 5567 5566 5565 5564 5562 5561 5560 5559 5558 5556 5555
5546 5548 5550 5551 5553 5554 5555 5556 5557 5559 5560 5560 5561 5562 5563 5563 5564 5564 5564 5564 5565 5565 5564 5564 5563 5562 5561 5560 5560 5559 5559 5557 5556 5554 5553 5551 5550 5548 5547 5546 5544 5542 5541
5534 5536 5538 5539 5541 5542 5544 5545 5546 5547 5549 5550 5551 5551 5552 5552 5552 5552 5552 5553 5553 5553 5553 5553 5552 5551 5550 5549 5549 5548 5547 5546 5544 5543 5541 5540 5538 5537 5535 5533 5531 5529 5527
5522 5524 5526 5527 5529 5531 5532 5534 5535 5536 5537 5539 5539 5540 5541 5541 5541 5541 5541 5541 5542 5542 5542 5542 5541 5541 5540 5539 5538 5537 5536 5535 5533 5532 5530 5529 5527 5525 5523 5520 5518 5515 5513
5509 5512 5514 5516 5517 5519 5521 5522 5523 5525 5526 5527 5528 5529 5530 5530 5530 5530 5530 5531 5531 5531 5531 5531 5530 5530 5529 5528 5527 5527 5526 5524 5523 5521 5520 5518 5516 5514 5511 5509 5505 5503 5500
5497 5499 5501 5503 5505 5507 5509 5510 5512 5514 5515 5516 5517 5518 5519 5519 5519 5520 5520 5520 5520 5521 5520 5520 5520 5519 5519 5518 5517 5516 5515 5514 5512 5511 5509 5507 5504 5502 5499 5497 5495 5492 5490
5486 5488 5490 5492 5494 5496 5497 5499 5501 5502 5504 5505 5506 5507 5508 5509 5509 5509 5509 5510 5510 5510 5510 5510 5509 5509 5509 5508 5507 5506 5505 5504 5502 5500 5498 5496 5494 5491 5488 5486 5484 5482 5480
5475 5477 5479 5481 5483 5485 5487 5489 5490 5491 5492 5494 5495 5496 5497 5498 5498 5499 5499 5499 5500 5500 5500 5500 5500 5499 5499 5498 5497 5496 5495 5493 5492 5490 5488 5486 5483 5480 5478 5476 5474 5472 5470
5464 5466 5469 5471 5473 5475 5477 5479 5480 5482 5482 5483 5484 5485 5486 5487 5488 5489 5489 5489 5490 5490 5490 5490 5490 5490 5489 5488 5488 5487 5485 5484 5482 5480 5478 5475 5473 5471 5468 5466 5464 5462 5460
5453 5456 5458 5461 5463 5465 5467 5469 5470 5472 5473 5474 5475 5475 5476 5477 5478 5478 5479 5479 5480 5480 5480 5480 5480 5480 5479 5479 5478 5477 5475 5474 5472 5470 5468 5466 5463 5461 5459 5457 5455 5453 5451
5443 5445 5448 5451 5453 5455 5457 5459 5461 5462 5463 5464 5465 5466 5467 5467 5468 5468 5469 5470 5470 5470 5471 5471 5471 5470 5470 5469 5468 5467 5465 5464 5462 5460 5458 5456 5454 5452 5450 5448 5446 5444 5442
5433 5436 5438 5441 5443 5445 5447 5449 5451 5453 5454 5455 5456 5457 5457 5458 5458 5459 5459 5460 5460 5461 5461 5461 5461 5461 5460 5459 5458 5457 5455 5454 5452 5451 5449 5447 5445 5443 5441 5439 5437 5435 5433
5425 5427 5429 5432 5434 5436 5438 5440 5442 5443 5445 5446 5446 5447 5448 5448 5449 5449 5450 5450 5451 5451 5451 5451 5451 5451 5450 5450 5448 5447 5446 5445 5443 5441 5440 5438 5436 5434 5432 5430 5428 5426 5424
5416 5418 5421 5423 5425 5427 5429 5431 5433 5434 5435 5436 5437 5437 5438 5439 5439 5439 5440 5441 5441 5441 5442 5442 5442 5442 5441 5440 5439 5438 5437 5435 5434 5432 5431 5429 5427 5425 5423 5421 5419 5417 5414
5409 5411 5413 5415 5417 5419 5420 5422 5424 5425 5426 5427 5428 5428 5429 5429 5429 5430 5430 5431 5431 5432 5432 5433 5433 5433 5432 5431 5431 5430 5428 5427 5425 5424 5422 5420 5418 5416 5414 5412 5410 5408 5406
5402 5404 5405 5407 5409 5411 5412 5414 5415 5416 5417 5418 5419 5419 5419 5420 5420 5421 5421 5422 5423 5423 5424 5424 5424 5424 5423 5423 5422 5421 5420 5418 5417 5415 5414 5412 5410 5408 5406 5403 5401 5399 5397
5395 5397 5398 5400 5402 5404 5405 5406 5407 5408 5409 5410 5410 5411 5411 5411 5412 5412 5413 5414 5414 5415 5415 5416 5416 5415 5415 5414 5413 5412 5411 5410 5409 5407 5405 5404 5402 5400 5397 5395 5393 5392 5390
5389 5390 5392 5393 5395 5396 5397 5399 5400 5401 5402 5402 5403 5403 5404 5404 5404 5405 5405 5406 5407 5407 5407 5407 5407 5407 5406 5406 5405 5404 5403 5402 5400 5399 5397 5396 5394 5392 5390 5388 5386 5384 5383
Wind_Speed
35 34 34 34 35 35 35 35 35 34 34 34 34 34 34 34 34 34 34 35 35 34 34 35 35 35 36 37 38 39 40 40 41 41 42 43 44 45 46 46 47 49 50
36 36 36 36 36 36 36 36 35 35 35 34 34 34 34 35 34 34 35 35 34 35 36 36 36 36 36 37 38 38 38 39 40 40 41 42 43 45 46 47 48 49 50
38 37 37 37 37 37 37 37 36 36 36 35 35 34 35 36 36 35 35 35 35 35 36 36 36 36 36 37 37 37 37 39 40 40 40 41 43 44 46 47 49 50 50
38 38 38 38 38 38 38 37 36 36 36 36 36 35 36 37 37 37 36 35 35 35 35 36 36 36 37 37 37 38 38 39 39 40 40 41 42 44 46 47 48 49 50
39 39 39 39 39 39 38 38 37 37 37 37 37 36 36 36 37 37 37 36 35 35 35 35 36 36 37 37 37 38 39 39 39 40 41 42 43 43 45 46 47 48 48
39 39 39 39 39 40 39 39 38 38 38 38 38 37 37 37 37 37 37 37 36 36 36 36 36 36 37 38 38 39 40 40 40 40 42 43 43 44 44 45 46 47 48
40 40 40 39 39 39 40 39 39 39 39 39 39 39 39 38 38 37 36 37 37 37 37 37 37 38 38 38 39 40 40 41 41 42 42 43 43 43 44 45 46 47 48
40 40 40 40 40 39 40 40 40 40 40 39 40 40 39 39 39 38 38 38 38 38 38 37 38 38 38 39 39 39 40 41 41 42 41 42 42 43 44 45 46 47 48
41 41 41 41 41 40 40 40 40 39 39 40 40 40 39 39 39 39 39 39 39 39 38 38 38 38 39 40 39 39 40 41 42 42 42 42 42 42 42 43 44 46 47
41 41 41 41 41 40 40 39 39 40 39 39 40 39 39 39 40 39 39 39 39 39 39 39 39 39 39 40 39 39 39 39 40 41 41 42 42 42 42 43 44 44 45
43 42 41 41 41 41 39 39 40 40 40 40 39 39 39 39 39 39 38 38 38 38 39 39 39 39 39 39 39 38 38 38 39 38 39 39 41 42 43 44 44 44 45
43 42 42 41 41 40 40 40 40 40 40 39 39 39 39 38 38 38 38 38 37 38 38 38 38 38 38 38 38 37 37 38 37 37 38 39 41 42 42 43 43 43 43
42 41 41 41 40 41 41 40 40 39 39 39 39 39 38 38 38 38 37 37 37 37 37 37 38 37 37 37 37 37 37 37 36 37 37 39 40 41 42 43 43 43 42
39 39 39 39 39 39 39 39 38 38 38 38 38 38 38 37 36 36 36 36 36 36 36 36 36 36 36 36 36 36 36 36 36 36 37 38 39 40 41 41 41 41 40
37 37 36 36 36 35 36 36 36 37 37 37 37 37 37 36 36 36 36 35 35 35 35 36 36 35 35 35 35 35 36 35 35 36 37 37 37 38 39 39 38 38 38
36 35 34 34 34 34 34 34 34 34 35 35 35 35 35 35 35 35 34 34 34 34 34 34 34 34 34 34 34 34 34 34 35 36 37 37 36 37 36 35 35 36 36
35 35 35 35 34 34 34 34 33 33 34 34 34 34 34 34 34 34 33 33 33 33 33 33 33 33 33 33 33 33 33 34 35 36 36 36 36 35 34 34 34 34 34
35 35 34 34 34 34 34 33 32 32 32 32 32 32 32 33 33 33 33 33 33 33 33 32 32 32 32 33 33 33 34 34 35 35 34 34 34 33 32 32 32 32 33
33 33 33 33 33 33 33 32 31 31 30 31 31 31 31 32 32 33 33 33 32 33 33 32 32 32 32 32 33 34 34 35 34 33 33 33 33 32 31 31 31 32 33
31 31 31 31 31 31 32 32 31 31 30 31 31 31 31 32 32 32 33 33 32 32 32 32 32 32 32 32 33 34 34 33 33 32 32 32 31 31 31 31 32 32 32
29 29 29 29 29 29 30 31 31 31 31 31 31 31 31 31 32 32 32 32 32 31 31 31 31 31 31 32 32 32 32 32 32 31 31 31 31 31 32 32 32 32 32
27 27 28 28 28 28 29 30 30 31 32 32 31 31 31 31 31 31 31 30 30 31 30 30 30 30 30 30 30 30 30 30 30 30 29 29 30 30 31 32 32 32 31
25 25 26 27 27 27 28 28 29 30 30 30 31 30 30 30 30 30 29 29 29 29 29 28 28 28 29 29 29 29 28 28 28 28 28 29 29 30 30 30 30 30 30
23 24 24 25 25 25 25 26 26 27 27 27 27 28 28 28 28 28 28 28 27 27 27 27 27 27 28 28 28 28 28 27 27 27 27 28 28 28 28 29 29 28 28
22 23 23 24 24 24 24 24 24 24 25 25 25 25 25 25 25 25 25 25 25 25 26 26 26 27 27 27 27 27 27 27 27 27 27 27 27 27 27 27 27 27 26
21 22 22 23 23 23 23 22 23 23 23 24 24 24 23 23 23 23 23 24 24 25 25 25 26 26 26 26 26 27 27 27 27 26 26 26 26 26 26 25 25 25 25
Wind_Direction
258 259 260 261 261 262 263 264 264 264 264 265 267 267 267 268 269 269 269 271 271 270 271 272 271 270 268 267 266 267 267 266 267 267 267 267 266 266 267 267 268 269 270
259 259 260 261 261 262 263 264 264 264 264 265 267 267 267 269 269 269 269 271 272 271 271 272 270 269 269 268 268 269 268 268 269 270 270 270 270 270 269 269 270 271 272
259 260 260 261 261 262 263 264 263 264 265 265 266 267 267 268 269 269 270 272 272 271 271 271 269 269 271 270 269 268 269 270 270 271 272 272 271 271 271 271 272 272 272
259 260 260 260 261 262 262 263 263 263 264 265 266 268 269 270 270 269 270 272 272 271 271 271 269 270 272 271 270 270 271 271 272 271 272 272 273 273 273 272 272 273 273
259 260 261 261 260 261 262 263 263 263 264 265 267 269 271 271 271 269 269 270 271 272 271 271 272 272 273 272 272 272 272 273 272 273 273 273 274 275 274 274 274 275 275
259 260 261 261 261 262 262 262 263 263 264 266 267 268 270 271 271 270 270 270 271 272 272 272 272 273 273 273 275 274 274 274 275 275 275 275 275 275 275 276 276 276 277
258 259 261 261 262 263 262 262 263 264 265 266 267 268 269 271 271 271 271 270 270 272 273 272 272 273 274 275 276 275 275 275 275 276 277 276 275 275 276 277 278 279 279
258 259 260 261 261 262 262 263 264 265 265 266 266 268 269 270 270 270 270 270 271 272 273 273 273 274 275 276 276 277 277 276 275 276 278 278 277 278 278 279 279 280 280
259 259 260 260 260 261 262 263 264 264 265 266 267 268 269 269 270 270 270 271 271 272 272 273 274 275 276 277 277 278 279 279 278 278 278 278 279 279 279 280 280 281 282
259 259 260 260 260 262 262 262 262 263 264 265 266 267 268 269 270 270 270 271 272 272 273 273 275 276 277 277 278 279 280 280 280 280 279 279 279 279 280 282 283 283 284
259 259 260 260 260 261 261 261 261 262 263 264 265 266 267 269 269 270 270 271 271 272 272 273 275 277 278 278 278 279 281 282 282 280 279 279 280 281 282 283 284 285 285
259 259 259 259 259 259 260 261 261 262 263 263 264 265 267 268 269 269 270 270 271 271 272 273 275 276 277 278 278 279 281 283 283 281 280 281 282 283 284 284 285 286 286
260 259 259 259 258 260 261 261 261 262 263 264 265 266 266 267 268 269 270 270 269 270 272 273 275 276 277 278 278 280 282 283 283 283 284 284 285 285 285 285 285 285 286
259 259 259 259 259 260 260 261 262 262 263 263 264 265 266 266 268 270 270 271 271 271 272 273 275 276 278 279 279 281 282 283 283 284 285 286 287 287 286 285 285 286 286
257 258 258 259 259 258 260 261 262 262 262 262 263 264 265 266 268 269 270 270 270 271 272 273 274 275 277 279 280 281 283 284 284 285 287 288 289 289 288 287 286 287 287
255 256 256 258 258 258 260 261 262 263 263 263 264 264 265 266 267 268 269 269 270 271 271 273 274 275 276 278 280 281 283 284 286 286 287 288 289 290 290 289 288 288 289
255 256 256 257 257 258 259 260 261 263 264 264 264 264 265 266 267 268 269 269 270 270 271 272 273 275 276 278 280 281 283 284 286 287 287 288 290 290 290 290 290 290 291
256 256 256 256 256 257 259 260 261 263 263 264 265 265 265 266 267 268 268 269 269 269 270 271 273 275 277 278 280 281 283 285 286 287 288 289 290 291 291 292 292 293 293
255 255 256 257 257 257 257 258 260 262 263 264 265 265 266 267 268 268 268 269 268 268 269 271 273 275 277 278 280 282 284 285 287 288 289 289 290 291 292 293 294 295 294
255 255 256 256 256 257 257 256 258 260 262 264 265 267 267 267 268 268 268 268 268 269 269 270 273 275 277 280 281 283 283 284 285 287 288 289 289 290 292 293 293 294 293
254 254 254 255 257 258 257 257 257 259 261 263 265 267 268 268 268 267 267 267 267 269 270 272 273 276 278 280 282 282 283 284 285 286 287 287 288 290 292 293 293 293 293
254 252 252 255 256 256 256 258 259 260 261 263 265 267 269 269 269 268 267 267 267 268 270 272 274 276 277 280 282 283 284 284 285 286 287 289 290 291 292 293 293 293 293
254 253 253 253 254 255 256 258 259 261 262 264 266 267 268 268 268 267 266 266 267 268 270 271 273 275 277 280 282 283 284 285 286 287 289 289 290 291 292 293 293 293 293
253 253 252 252 253 254 255 258 259 260 261 263 265 267 268 268 267 266 266 267 267 267 268 270 273 276 277 279 280 282 284 285 287 289 291 292 293 293 293 293 293 293 293
254 252 252 253 254 255 256 258 259 259 261 264 266 268 269 267 266 265 266 266 266 267 269 271 273 275 278 279 280 282 284 286 288 289 290 292 293 294 294 294 293 293 293
254 253 253 254 254 255 256 257 258 260 263 265 266 267 267 267 266 266 267 267 268 269 270 271 273 276 277 279 281 283 285 288 289 289 290 291 293 293 294 293 293 293 292